Flag for Netherlands Weather past 2 weeks in Rotterdam, Netherlands

Now
61 °F

Fog.


Feels Like: 61 °F
Forecast: 60 / 74 °F
Wind: 5 mph from East

Location: Rotterdam Zestienhoven Airport

Current Time: Sep 19, 2014 at 4:23:12 AM

Latest Report: Sep 19, 2014 at 3:55 AM


Visibility: 2 mi

Pressure: 29.80 "Hg

Humidity: 94%

Dew point: 59 °F

Location of RotterdamLocation

Historic Weather in Rotterdam — Graph

°F

Rotterdam temperature yesterday

Maximum temperature yesterday: 79 °F (at 1:55 PM)
Minimum temperature yesterday: 55 °F (at 2:25 AM)
Average temperature yesterday: 66 °F

Past Weeks' High & Low Weather Summary

 TemperatureHumidityPressure
High79 °F (Sep 18, 1:55 PM)100% (Sep 4, 5:55 AM)30.30 "Hg (Sep 4, 5:55 AM)
Low46 °F (Sep 11, 3:25 AM)51% (Sep 17, 2:55 PM)29.80 "Hg (Sep 18, 6:25 AM)
Average62 °F83%30.04 "Hg
* Reported Sep 4 2:25 AM — Sep 19 2:55 AM, Rotterdam, Weather by CustomWeather, © 2014

Note: Actual official high and low records may vary slightly from our data, if they occured in-between our weather recording intervals... More about our weather records

Advertising

Rotterdam weather history for previous 24 hours

 ConditionsComfort  
Time TempWeatherWind HumidityBarometerVisibility
2:55 AM
Sep 19
61 °FFog.5 mph100%29.80 "Hg2 mi
2:25 AM61 °FFog.2 mph100%29.83 "Hg3 mi
1:55 AM61 °FFog.5 mph94%29.83 "Hg3 mi
1:25 AM61 °FPassing clouds.2 mph94%29.83 "Hg4 mi
12:55 AM63 °FPassing clouds.1 mph94%29.83 "Hg5 mi
12:25 AM64 °FPassing clouds.5 mph88%29.83 "HgN/A
11:55 PM
Sep 18
64 °FMild.6 mph88%29.83 "HgN/A
11:25 PM63 °FClear.5 mph88%29.83 "HgN/A
10:55 PM66 °FClear.5 mph83%29.83 "HgN/A
10:25 PM64 °FClear.3 mph88%29.83 "HgN/A
9:55 PM64 °FMild.5 mph88%29.83 "HgN/A
9:25 PM66 °FClear.5 mph83%29.83 "HgN/A
8:55 PM70 °FMild.6 mph73%29.80 "HgN/A
8:25 PM66 °FClear.6 mph83%29.80 "HgN/A
7:55 PM72 °FClear.7 mph69%29.80 "HgN/A
7:25 PM73 °FThunderstorms. Cloudy.9 mph65%29.80 "HgN/A
6:55 PM75 °FMild.9 mph61%29.80 "HgN/A
6:25 PM77 °FClear.8 mph57%29.80 "HgN/A
5:55 PM77 °FWarm.8 mph57%29.80 "HgN/A
5:25 PM79 °FWarm.8 mph54%29.80 "HgN/A
4:55 PM79 °FPassing clouds.7 mph51%29.80 "HgN/A
4:25 PM79 °FPassing clouds.6 mph58%29.80 "HgN/A
3:55 PM77 °FWarm.8 mph57%29.80 "HgN/A
3:25 PM79 °FClear.8 mph54%29.80 "HgN/A
2:55 PM79 °FPassing clouds.6 mph54%29.80 "HgN/A
2:25 PM79 °FClear.7 mph54%29.80 "HgN/A
1:55 PM79 °FClear.7 mph58%29.80 "HgN/A
1:25 PM77 °FClear.5 mph61%29.80 "HgN/A
12:55 PM75 °FClear.7 mph65%29.80 "HgN/A
12:25 PM73 °FClear.5 mph65%29.83 "HgN/A
11:55 AM72 °FClear.3 mph69%29.83 "Hg6 mi
11:25 AM70 °FClear.3 mph73%29.83 "Hg6 mi
10:55 AM68 °FMild.5 mph78%29.83 "Hg5 mi
10:25 AM66 °FClear.5 mph83%29.83 "Hg4 mi
9:55 AM64 °FFog.6 mph83%29.83 "Hg3 mi
9:25 AM63 °FFog.5 mph88%29.83 "Hg3 mi
8:55 AM61 °FFog.6 mph94%29.83 "Hg2 mi
8:25 AM59 °FFog.5 mph94%29.83 "Hg2 mi
7:55 AM57 °FFog.3 mph94%29.83 "Hg2 mi
7:25 AM57 °FFog.6 mph94%29.80 "Hg2 mi
6:55 AM57 °FFog.3 mph100%29.83 "Hg1 mi
6:25 AM57 °FFog.3 mph94%29.80 "Hg2 mi
5:55 AM57 °FFog.3 mph100%29.83 "Hg1 mi
5:25 AM57 °FFog.3 mph100%29.83 "Hg2 mi
4:55 AM55 °FFog.3 mph100%29.83 "Hg2 mi
4:25 AM55 °FFog.2 mph100%29.83 "Hg1 mi
Weather by CustomWeather, © 2014

See weather overviewHow to use our weather pages